Regional Weather Roundup
Issued by NWS

Home | Current Version | Previous Version | Graphics & Text | Print | Product List | Glossary Off
Versions: 1 2 3 4 5 6 7 8 9 10 11 12 13 14 15 16 17 18 19 20 21 22 23 24 25 26 27 28 29 30 31 32 33 34 35 36 37 38 39 40 41 42 43 44 45 46 47 48 49 50

000
ASUS43 KMPX 292001
RWRMN
WEATHER ROUNDUP FOR MINNESOTA
NATIONAL WEATHER SERVICE TWIN CITIES/CHANHASSEN MN
300 PM CDT TUE JUL 29 2014


NOTE: "FAIR" INDICATES FEW OR NO CLOUDS BELOW 12,000 FEET WITH NO
SIGNIFICANT WEATHER AND/OR OBSTRUCTIONS TO VISIBILITY. N/A MEANS
CURRENT SKY AND/OR WEATHER CONDITIONS ARE NOT AVAILABLE.

MNZ060>063-068>070-292100-
   Twin Cities Metro

CITY           SKY/WX    TMP DP  RH WIND       PRES   REMARKS
TWIN CITIES    PTSUNNY   78  54  43 W10G17    30.08F
ST PAUL        MOSUNNY   79  56  45 W14       30.07F
CRYSTAL        PTSUNNY   78  54  43 NW14      30.07F
BLAINE         PTSUNNY   81  57  44 NW12      30.07F
LAKEVILLE      MOSUNNY   75  55  50 W10G16    30.09F
EDEN PRAIRIE   MOSUNNY   80  56  43 W12       30.08F
SOUTH ST PAUL  SUNNY     79  54  42 W9        30.07F
LAKE ELMO      DRIZZLE   72  59  64 CALM      30.09S
$$
MNZ001>005-007-008-013>017-022>024-027-028-292100-
   Northwest Minnesota

CITY           SKY/WX    TMP DP  RH WIND       PRES   REMARKS
BEMIDJI        MOSUNNY   75  54  47 NW10G18   30.12S
HALLOCK        SUNNY     77  54  44 N6        30.13S
ROSEAU         MOSUNNY   79  61  53 NW6       30.11S
WARROAD        MOSUNNY   77  59  53 NW12      30.10S
THIEF RVR FALL MOSUNNY   73  55  53 NW9       30.14S
CROOKSTON      MOSUNNY   75  55  50 N9        30.14S
FOSSTON        MOSUNNY   73  57  56 W10       30.14S
DETROIT LAKES  MOSUNNY   72  54  53 N9        30.16S
MOORHEAD       MOSUNNY   77  52  41 N12       30.14F
PARK RAPIDS    MOSUNNY   75  52  44 NW7       30.12F
$$
MNZ006-009>011-018-025>026-292100-
   North Central Minnesota

CITY           SKY/WX    TMP DP  RH WIND       PRES   REMARKS
BAUDETTE       SUNNY     77  55  46 NW12      30.09F
FLAG ISLAND    MOSUNNY   75  52  43 NW14      30.07S
INTL FALLS     PTSUNNY   76  55  48 NW10      30.04F
WASKISH        MOSUNNY   75  57  53 NW8       30.09S
BIG FORK       MOSUNNY   77  54  44 NW6       30.07F
LONGVILLE      SUNNY     73  55  53 NW5       30.10F
GRAND RAPIDS   PTSUNNY   73  55  53 NW10      30.08S
CRANE LAKE     MOSUNNY   70  61  73 NW3       30.04F
ORR            MOSUNNY   73  54  49 W7        30.02S
COOK           MOSUNNY   68  59  73 W6        30.05R
$$
MNZ012-019>021-037-292100-
   Northeast Minnesota

CITY           SKY/WX    TMP DP  RH WIND       PRES   REMARKS
DULUTH         MOSUNNY   77  53  43 NW15      30.02F
ELY            MOSUNNY   72  55  56 NW9G18    30.02F
HIBBING        MOSUNNY   77  52  41 W14G21    30.04F
EVELETH        SUNNY     77  54  44 NW15      30.03F
DULUTH HARBOR  SUNNY     79  55  44 W17       29.99F
TWO HARBORS    MOSUNNY   77  55  47 W9G20     29.97F
SILVER BAY     MOSUNNY   64  61  88 N14G20    30.02R
G MARAIS ARPRT MOSUNNY   66  55  68 W3        30.02S
$$
MNZ029>031-032-039>041-046>048-054>057-064-292100-
   West Central Minnesota

CITY           SKY/WX    TMP DP  RH WIND       PRES   REMARKS
FERGUS FALLS   SUNNY     75  50  41 NW9       30.14F
WHEATON        SUNNY     72  54  53 NW7       30.17F
MORRIS         MOSUNNY   77  55  47 NW13      30.15S
ALEXANDRIA     MOSUNNY   76  53  44 NW10      30.16F
ELBOW LAKE     FAIR      73  55  52 NW7       30.15F
WADENA         MOSUNNY   73  55  53 NW10      30.13F
GLENWOOD       SUNNY     75  54  46 NW13      30.15F
APPLETON       MOSUNNY   79  52  38 NW10      30.15F
BENSON         MOSUNNY   75  55  50 N5        30.15S
ORTONVILLE     SUNNY     75  52  43 W12       30.16F
MADISON        SUNNY     77  57  50 N10       30.16S
WILLMAR        FAIR      77  52  41 W9        30.15F
$$
MNZ033>034-036-042>043-049>051-058-059-292100-
   Central Minnesota

CITY           SKY/WX    TMP DP  RH WIND       PRES   REMARKS
ST CLOUD       MOSUNNY   81  55  40 NW7G16    30.09F
SAUK CENTRE    FAIR      75  53  46 NW9       30.13F
PAYNESVILLE    PTSUNNY   74  51  43 SW12      30.13S
AITKIN         MOSUNNY   77  57  50 NW8       30.08S
PINE RIVER     MOSUNNY   75  55  50 NW10      30.13F
BRAINERD       PTSUNNY   75  53  46 W10       30.10F
STAPLES        MOSUNNY   75  52  43 NW12G20   30.12F
LONG PRAIRIE   FAIR      72  54  53 W9G17     30.14S
LITTLE FALLS   SUNNY     75  50  41 NW8G18    30.11S
LITCHFIELD     MOSUNNY   79  54  41 W8        30.13S
BUFFALO        MOSUNNY   78  54  43 W12       30.11S
MAPLE LAKE     MOSUNNY   78  57  49 NW8       30.11F
$$
MNZ037-044-045-052-053-292100-
   East Central Minnesota

CITY           SKY/WX    TMP DP  RH WIND       PRES   REMARKS
PRINCETON      PTSUNNY   79  55  44 W13       30.09S
MORA           MOSUNNY   75  54  46 NW9       30.09F
CAMBRIDGE      MOSUNNY   81  59  47 W12       30.06F
RUSH CITY      MOSUNNY   77  56  48 NW8       30.07F
MOOSE LAKE     SUNNY     77  54  44 NW7       30.04F
HINCKLEY       MOCLDY    77  59  53 W12       30.06F
CLOQUET        MOSUNNY   75  52  43 NW16      30.04F
MCGREGOR       MOSUNNY   75  55  50 W10       30.08F
$$
MNZ071>073-080-081-089-090-097-098-292100-
   Southwest Minnesota

CITY           SKY/WX    TMP DP  RH WIND       PRES   REMARKS
MONTEVIDEO     MOSUNNY   77  55  47 N9        30.16S
GRANITE FALLS  MOSUNNY   75  55  48 NW6       30.17S
CANBY          PTSUNNY   77  51  40 N7        30.18S
MARSHALL       SUNNY     73  52  46 NW10      30.16S
REDWOOD FALLS  SUNNY     77  52  41 N9        30.14F
OLIVIA         MOSUNNY   77  54  44 NW8       30.14S
PIPESTONE      PTSUNNY   72  52  49 N5        30.19S
WINDOM         SUNNY     73  52  46 W6        30.17S
WORTHINGTON    MOSUNNY   72  52  49 NW7       30.19F
JACKSON        MOSUNNY   73  52  46 NW6       30.18S
TRACY          MOSUNNY   75  54  47 NW6       30.17S
SLAYTON        MOSUNNY   73  51  45 CALM      30.19S
$$
MNZ065>067-074>077-082>085-091>093-292100-
   South Central Minnesota

CITY           SKY/WX    TMP DP  RH WIND       PRES   REMARKS
MANKATO        MOSUNNY   75  52  43 NW15      30.13F
NEW ULM        MOSUNNY   75  54  46 W10       30.14S
ST JAMES       SUNNY     75  52  43 W6        30.15F
FAIRMONT       PTSUNNY   75  48  38 NW12      30.15F
GLENCOE        MOSUNNY   77  50  38 W8        30.11F
FARIBAULT      PTSUNNY   79  50  36 W9        30.12S
OWATONNA       MOSUNNY   75  54  46 NW10      30.12F
WASECA         SUNNY     73  50  43 W8        30.14F
ALBERT LEA     MOSUNNY   75  54  46 NW6       30.13F
$$
MNZ078>079-086>088-094>096-292100-
   Southeast Minnesota

CITY           SKY/WX    TMP DP  RH WIND       PRES   REMARKS
ROCHESTER      MOSUNNY   75  56  51 W9        30.11F
RED WING       SUNNY     82  52  34 W9        30.06F
STANTON        MOSUNNY   79  54  41 W9        30.09F
DODGE CENTER   MOSUNNY   77  55  47 NW8       30.12F
WINONA         SUNNY     77  54  44 NW10      30.06F
AUSTIN         PTSUNNY   73  54  49 NW12      30.12S
PRESTON        SUNNY     73  62  67 NW10      30.10F
$$
ABBREVIATIONS USED IN REMARKS
   TC - TEMPERATURES IN CELSIUS
  WCI - WIND CHILL INDEX
   HX - HEAT INDEX
  VSB - VISIBILITY
$$



USA.gov is the U.S. government's official web portal to all federal, state and local government web resources and services.